Flag for Canada Weather past 2 weeks in Prince Albert, Saskatchewan, Canada

Now
59 °F

Passing clouds.


Feels Like: 57 °F
Forecast: 53 / 67 °F
Wind: 12 mph from West

Location: Prince Albert

Current Time: Sep 3, 2015 at 5:24:20 AM

Latest Report: Sep 3, 2015 at 4:00 AM


Visibility: 15 mi

Pressure: 29.70 "Hg

Humidity: 77%

Dew point: 52 °F

Location of Prince AlbertLocation

Historic Weather in Prince Albert — Graph

°F

Prince Albert temperature yesterday

Maximum temperature yesterday: 73 °F (at 2:00 PM)
Minimum temperature yesterday: 45 °F (at 1:00 AM)
Average temperature yesterday: 60 °F

Past Weeks' High & Low Weather Summary

 TemperatureHumidityPressure
High82 °F (Aug 28, 3:00 PM)100% (Aug 19, 6:00 AM)30.15 "Hg (Aug 19, 6:00 AM)
Low37 °F (Aug 24, 4:00 AM)32% (Aug 31, 5:00 PM)29.50 "Hg (Aug 31, 5:00 AM)
Average60 °F74%29.82 "Hg
* Reported Aug 19 4:00 AM — Sep 3 4:00 AM, Prince Albert, Weather by CustomWeather, © 2015

Note: Actual official high and low records may vary slightly from our data, if they occured in-between our weather recording intervals... More about our weather records

Advertising

Prince Albert weather history for previous 24 hours

 ConditionsComfort  
Time TempWeatherWind HumidityBarometerVisibility
4:00 AM
Thu, Sep 3
59 °FPassing clouds.12 mph77%29.70 "Hg15 mi
3:00 AM59 °FPartly cloudy.12 mph77%29.67 "Hg15 mi
2:00 AM55 °FPartly cloudy.2 mph94%29.65 "Hg15 mi
1:00 AM52 °FMostly cloudy.No wind100%29.63 "Hg15 mi
12:00 AM52 °FPassing clouds.2 mph100%29.65 "Hg15 mi
11:00 PM
Wed, Sep 2
55 °FPassing clouds.No wind94%29.62 "Hg15 mi
10:00 PM57 °FPassing clouds.3 mph88%29.61 "Hg15 mi
9:00 PM63 °FPassing clouds.3 mph83%29.60 "Hg15 mi
8:00 PM64 °FPassing clouds.7 mph78%29.58 "Hg15 mi
7:00 PM68 °FPartly sunny.12 mph73%29.58 "Hg15 mi
6:00 PM70 °FPartly sunny.13 mph69%29.59 "Hg15 mi
5:00 PM72 °FMostly cloudy.15 mph61%29.61 "Hg15 mi
4:00 PM72 °FThunderstorms. Mostly cloudy.7 mph61%29.64 "Hg15 mi
3:00 PM73 °FOvercast.7 mph50%29.62 "Hg15 mi
2:00 PM73 °FMostly cloudy.13 mph50%29.64 "Hg15 mi
1:00 PM72 °FMostly cloudy.6 mph57%29.66 "Hg15 mi
12:00 PM68 °FMore clouds than sun.13 mph60%29.68 "Hg15 mi
11:00 AM66 °FBroken clouds.17 mph56%29.68 "Hg15 mi
10:00 AM64 °FPartly sunny.17 mph60%29.71 "Hg15 mi
9:00 AM59 °FPartly sunny.14 mph72%29.73 "Hg15 mi
8:00 AM54 °FPartly sunny.15 mph82%29.76 "Hg15 mi
7:00 AM48 °FPartly sunny.8 mph94%29.79 "Hg15 mi
6:00 AM46 °FPassing clouds.6 mph93%29.79 "Hg15 mi
5:00 AM45 °FPassing clouds.7 mph93%29.78 "Hg15 mi
Weather by CustomWeather, © 2015

See weather overviewHow to use our weather pages